CFTIW CYTZ-KAKR

Flight info

Callsign CFTIW
Flight time 1h 19m
Altitude 10000
Route DCT
Aircraft BE58/L-SDE3/1200

Departure

Time 2026-04-29 10:28
Airport Billy Bishop Toronto City Airport (CYTZ)

Arrival

Time 2026-04-29 11:47
Airport Akron Fulton International Airport (KAKR)
Time Latitude Longitude Altitude Speed Heading
2026-04-29 10:17 43.63133 -79.39450 251 ft 0 kts 341°
2026-04-29 10:21 43.63132 -79.39449 251 ft 2 kts 341°
2026-04-29 10:22 43.63117 -79.39443 251 ft 2 kts 341°
2026-04-29 10:22 43.63102 -79.39436 251 ft 2 kts 341°
2026-04-29 10:22 43.63086 -79.39429 251 ft 2 kts 341°
2026-04-29 10:22 43.63071 -79.39422 251 ft 2 kts 341°
2026-04-29 10:23 43.63063 -79.39418 251 ft 0 kts 341°
2026-04-29 10:23 43.63064 -79.39419 251 ft 1 kts 335°
2026-04-29 10:24 43.63050 -79.39473 251 ft 9 kts 241°
2026-04-29 10:24 43.63024 -79.39560 251 ft 10 kts 252°
2026-04-29 10:24 43.62996 -79.39674 251 ft 15 kts 249°
2026-04-29 10:24 43.62968 -79.39831 251 ft 18 kts 283°
2026-04-29 10:25 43.63014 -79.39982 251 ft 15 kts 289°
2026-04-29 10:25 43.63004 -79.40092 251 ft 11 kts 233°
2026-04-29 10:25 43.62947 -79.40185 251 ft 14 kts 223°
2026-04-29 10:25 43.62870 -79.40275 251 ft 14 kts 222°
2026-04-29 10:26 43.62813 -79.40332 251 ft 5 kts 182°
2026-04-29 10:26 43.62811 -79.40332 251 ft 0 kts 178°
2026-04-29 10:27 43.62770 -79.40241 250 ft 16 kts 71°
2026-04-29 10:27 43.62877 -79.39810 251 ft 87 kts 71°
2026-04-29 10:27 43.63048 -79.39178 331 ft 117 kts 69°
2026-04-29 10:28 43.63351 -79.38123 833 ft 118 kts 65°
2026-04-29 10:28 43.63709 -79.37084 1368 ft 119 kts 57°
2026-04-29 10:28 43.64175 -79.36123 1926 ft 121 kts 44°
2026-04-29 10:28 43.64855 -79.35567 2624 ft 112 kts 11°
2026-04-29 10:29 43.65598 -79.35749 3194 ft 115 kts 323°
2026-04-29 10:29 43.66023 -79.36731 3581 ft 127 kts 271°
2026-04-29 10:29 43.65636 -79.37785 3941 ft 139 kts 222°
2026-04-29 10:29 43.64765 -79.38527 4178 ft 148 kts 202°
2026-04-29 10:30 43.63817 -79.39011 4645 ft 138 kts 201°
2026-04-29 10:30 43.62986 -79.39485 5275 ft 121 kts 211°
2026-04-29 10:30 43.62305 -79.40065 5899 ft 109 kts 212°
2026-04-29 10:30 43.61694 -79.40565 6511 ft 95 kts 213°
2026-04-29 10:31 43.61135 -79.41025 6964 ft 96 kts 214°
2026-04-29 10:31 43.60559 -79.41513 7391 ft 98 kts 215°
2026-04-29 10:31 43.59982 -79.42002 7838 ft 97 kts 216°
2026-04-29 10:31 43.59409 -79.42481 8279 ft 96 kts 216°
2026-04-29 10:32 43.58840 -79.42957 8724 ft 95 kts 217°
2026-04-29 10:32 43.58277 -79.43428 9154 ft 94 kts 218°
2026-04-29 10:32 43.57714 -79.43901 9567 ft 95 kts 218°
2026-04-29 10:32 43.57147 -79.44376 9953 ft 96 kts 219°
2026-04-29 10:33 43.56500 -79.44941 10017 ft 124 kts 219°
2026-04-29 10:33 43.55705 -79.45625 10018 ft 144 kts 217°
2026-04-29 10:33 43.54818 -79.46365 10013 ft 153 kts 216°
2026-04-29 10:33 43.53886 -79.47137 10010 ft 158 kts 216°
2026-04-29 10:34 43.52936 -79.47927 10011 ft 160 kts 216°
2026-04-29 10:34 43.51979 -79.48724 10008 ft 161 kts 216°
2026-04-29 10:34 43.51019 -79.49524 10009 ft 161 kts 216°
2026-04-29 10:34 43.50058 -79.50327 10009 ft 162 kts 216°
2026-04-29 10:35 43.49094 -79.51132 10008 ft 162 kts 216°
2026-04-29 10:35 43.48133 -79.51933 10008 ft 162 kts 216°
2026-04-29 10:35 43.47171 -79.52736 10011 ft 162 kts 216°
2026-04-29 10:35 43.46209 -79.53538 10010 ft 162 kts 216°
2026-04-29 10:36 43.45258 -79.54331 10010 ft 162 kts 216°
2026-04-29 10:36 43.44442 -79.55011 10009 ft 162 kts 216°
2026-04-29 10:36 43.44114 -79.55284 10007 ft 162 kts 216°
2026-04-29 10:36 43.43152 -79.56086 10010 ft 162 kts 216°
2026-04-29 10:37 43.42189 -79.56888 10009 ft 162 kts 216°
2026-04-29 10:37 43.41226 -79.57689 10011 ft 162 kts 216°
2026-04-29 10:37 43.40264 -79.58489 10009 ft 162 kts 216°
2026-04-29 10:37 43.39300 -79.59291 10009 ft 162 kts 216°
2026-04-29 10:38 43.38336 -79.60093 10009 ft 162 kts 216°
2026-04-29 10:38 43.37373 -79.60893 10009 ft 162 kts 216°
2026-04-29 10:38 43.36411 -79.61692 10006 ft 162 kts 216°
2026-04-29 10:38 43.35448 -79.62492 10007 ft 162 kts 216°
2026-04-29 10:39 43.34486 -79.63291 10006 ft 162 kts 216°
2026-04-29 10:39 43.33524 -79.64088 10004 ft 161 kts 216°
2026-04-29 10:39 43.32561 -79.64887 10003 ft 161 kts 216°
2026-04-29 10:39 43.31600 -79.65684 10001 ft 161 kts 216°
2026-04-29 10:40 43.30639 -79.66481 9999 ft 161 kts 216°
2026-04-29 10:40 43.29691 -79.67267 9998 ft 161 kts 216°
2026-04-29 10:40 43.28730 -79.68062 9996 ft 161 kts 216°
2026-04-29 10:40 43.27769 -79.68857 9993 ft 161 kts 216°
2026-04-29 10:41 43.26808 -79.69653 9995 ft 161 kts 216°
2026-04-29 10:41 43.25849 -79.70446 9994 ft 161 kts 216°
2026-04-29 10:41 43.24888 -79.71241 9990 ft 161 kts 216°
2026-04-29 10:41 43.23929 -79.72034 9992 ft 161 kts 216°
2026-04-29 10:42 43.22970 -79.72827 9988 ft 161 kts 215°
2026-04-29 10:42 43.22011 -79.73619 9990 ft 161 kts 215°
2026-04-29 10:42 43.21051 -79.74412 9985 ft 161 kts 215°
2026-04-29 10:42 43.20095 -79.75201 9986 ft 161 kts 216°
2026-04-29 10:43 43.19139 -79.75990 9986 ft 161 kts 215°
2026-04-29 10:43 43.18181 -79.76780 9984 ft 161 kts 215°
2026-04-29 10:43 43.17225 -79.77568 9982 ft 160 kts 215°
2026-04-29 10:43 43.16269 -79.78356 9980 ft 160 kts 215°
2026-04-29 10:44 43.15325 -79.79134 9978 ft 160 kts 215°
2026-04-29 10:44 43.14371 -79.79920 9980 ft 160 kts 215°
2026-04-29 10:44 43.13414 -79.80708 9979 ft 160 kts 215°
2026-04-29 10:44 43.12459 -79.81495 9979 ft 160 kts 215°
2026-04-29 10:45 43.11504 -79.82280 9980 ft 160 kts 215°
2026-04-29 10:45 43.10549 -79.83065 9977 ft 160 kts 215°
2026-04-29 10:45 43.09593 -79.83851 9978 ft 160 kts 215°
2026-04-29 10:45 43.08639 -79.84635 9975 ft 160 kts 215°
2026-04-29 10:46 43.07686 -79.85418 9980 ft 160 kts 215°
2026-04-29 10:46 43.06733 -79.86201 9978 ft 160 kts 215°
2026-04-29 10:46 43.05781 -79.86982 9975 ft 160 kts 215°
2026-04-29 10:46 43.04828 -79.87765 9977 ft 160 kts 215°
2026-04-29 10:47 43.03873 -79.88548 9980 ft 160 kts 215°
2026-04-29 10:47 43.02920 -79.89329 9979 ft 160 kts 215°
2026-04-29 10:47 43.01966 -79.90111 9978 ft 160 kts 215°
2026-04-29 10:47 43.01015 -79.90891 9980 ft 159 kts 215°
2026-04-29 10:48 43.00076 -79.91660 9980 ft 159 kts 215°
2026-04-29 10:48 42.99126 -79.92438 9982 ft 159 kts 215°
2026-04-29 10:48 42.98165 -79.93224 9978 ft 159 kts 215°
2026-04-29 10:48 42.97226 -79.93993 9979 ft 159 kts 215°
2026-04-29 10:49 42.96278 -79.94769 9980 ft 159 kts 215°
2026-04-29 10:49 42.95326 -79.95547 9977 ft 159 kts 215°
2026-04-29 10:49 42.94377 -79.96322 9979 ft 159 kts 215°
2026-04-29 10:49 42.93426 -79.97099 9977 ft 159 kts 215°
2026-04-29 10:50 42.92474 -79.97877 9978 ft 159 kts 215°
2026-04-29 10:50 42.91523 -79.98653 9977 ft 159 kts 215°
2026-04-29 10:50 42.90573 -79.99429 9976 ft 159 kts 215°
2026-04-29 10:50 42.89620 -80.00206 9977 ft 159 kts 215°
2026-04-29 10:51 42.88667 -80.00983 9976 ft 159 kts 215°
2026-04-29 10:51 42.87718 -80.01757 9977 ft 159 kts 215°
2026-04-29 10:51 42.86770 -80.02529 9979 ft 159 kts 215°
2026-04-29 10:51 42.85822 -80.03302 9978 ft 159 kts 215°
2026-04-29 10:52 42.84874 -80.04074 9979 ft 159 kts 215°
2026-04-29 10:52 42.83925 -80.04846 9980 ft 159 kts 215°
2026-04-29 10:52 42.82977 -80.05618 9979 ft 159 kts 215°
2026-04-29 10:52 42.82029 -80.06390 9978 ft 159 kts 215°
2026-04-29 10:53 42.81082 -80.07159 9979 ft 159 kts 215°
2026-04-29 10:53 42.80146 -80.07920 9979 ft 159 kts 215°
2026-04-29 10:53 42.79198 -80.08691 9978 ft 159 kts 215°
2026-04-29 10:53 42.78251 -80.09461 9982 ft 159 kts 215°
2026-04-29 10:54 42.77302 -80.10231 9978 ft 159 kts 215°
2026-04-29 10:54 42.76355 -80.10999 9981 ft 158 kts 215°
2026-04-29 10:54 42.75410 -80.11766 9976 ft 158 kts 215°
2026-04-29 10:54 42.74463 -80.12534 9979 ft 158 kts 215°
2026-04-29 10:55 42.73519 -80.13300 9977 ft 158 kts 215°
2026-04-29 10:55 42.72572 -80.14068 9976 ft 158 kts 215°
2026-04-29 10:55 42.71628 -80.14832 9979 ft 158 kts 215°
2026-04-29 10:55 42.70683 -80.15598 9975 ft 158 kts 215°
2026-04-29 10:56 42.69737 -80.16365 9979 ft 158 kts 215°
2026-04-29 10:56 42.68792 -80.17129 9980 ft 158 kts 215°
2026-04-29 10:56 42.67846 -80.17894 9973 ft 158 kts 215°
2026-04-29 10:56 42.66904 -80.18656 9976 ft 158 kts 215°
2026-04-29 10:57 42.65961 -80.19419 9975 ft 158 kts 215°
2026-04-29 10:57 42.65020 -80.20179 9974 ft 158 kts 215°
2026-04-29 10:57 42.64077 -80.20942 9976 ft 158 kts 215°
2026-04-29 10:57 42.63135 -80.21702 9978 ft 158 kts 215°
2026-04-29 10:58 42.62192 -80.22464 9978 ft 157 kts 215°
2026-04-29 10:58 42.61250 -80.23223 9975 ft 157 kts 215°
2026-04-29 10:58 42.60322 -80.23972 9970 ft 151 kts 208°
2026-04-29 10:58 42.59432 -80.24693 9977 ft 148 kts 208°
2026-04-29 10:59 42.58553 -80.25401 9974 ft 146 kts 208°
2026-04-29 10:59 42.57681 -80.26103 9975 ft 146 kts 208°
2026-04-29 10:59 42.56822 -80.26795 9971 ft 145 kts 208°
2026-04-29 10:59 42.55953 -80.27494 9973 ft 145 kts 208°
2026-04-29 11:00 42.55086 -80.28192 9976 ft 145 kts 208°
2026-04-29 11:00 42.54221 -80.28888 9974 ft 145 kts 208°
2026-04-29 11:00 42.53356 -80.29585 9974 ft 145 kts 208°
2026-04-29 11:00 42.52490 -80.30281 9978 ft 145 kts 208°
2026-04-29 11:01 42.51626 -80.30976 9975 ft 144 kts 208°
2026-04-29 11:01 42.50763 -80.31670 9978 ft 144 kts 208°
2026-04-29 11:01 42.49899 -80.32364 9982 ft 144 kts 208°
2026-04-29 11:01 42.49037 -80.33057 9979 ft 144 kts 208°
2026-04-29 11:02 42.48175 -80.33749 9979 ft 144 kts 208°
2026-04-29 11:02 42.47310 -80.34443 9979 ft 144 kts 209°
2026-04-29 11:02 42.46449 -80.35135 9979 ft 144 kts 209°
2026-04-29 11:02 42.45587 -80.35826 9979 ft 144 kts 209°
2026-04-29 11:03 42.44725 -80.36517 9981 ft 144 kts 209°
2026-04-29 11:03 42.43862 -80.37209 9981 ft 144 kts 209°
2026-04-29 11:03 42.43001 -80.37900 9975 ft 144 kts 209°
2026-04-29 11:03 42.42141 -80.38590 9978 ft 144 kts 209°
2026-04-29 11:04 42.41290 -80.39270 9979 ft 144 kts 209°
2026-04-29 11:04 42.40429 -80.39960 9974 ft 144 kts 210°
2026-04-29 11:04 42.39557 -80.40658 9978 ft 144 kts 210°
2026-04-29 11:04 42.38706 -80.41339 9985 ft 144 kts 210°
2026-04-29 11:05 42.37842 -80.42031 9978 ft 144 kts 210°
2026-04-29 11:05 42.36975 -80.42724 9977 ft 145 kts 210°
2026-04-29 11:05 42.36109 -80.43416 9978 ft 145 kts 210°
2026-04-29 11:05 42.35242 -80.44109 9982 ft 145 kts 210°
2026-04-29 11:06 42.34373 -80.44803 9973 ft 145 kts 210°
2026-04-29 11:06 42.33504 -80.45497 9980 ft 145 kts 211°
2026-04-29 11:06 42.32633 -80.46193 9975 ft 146 kts 211°
2026-04-29 11:06 42.31762 -80.46888 9976 ft 146 kts 211°
2026-04-29 11:07 42.30888 -80.47585 9979 ft 146 kts 211°
2026-04-29 11:07 42.30017 -80.48281 9973 ft 146 kts 211°
2026-04-29 11:07 42.29144 -80.48977 9976 ft 146 kts 211°
2026-04-29 11:07 42.28271 -80.49672 9975 ft 146 kts 211°
2026-04-29 11:08 42.27400 -80.50366 9978 ft 146 kts 211°
2026-04-29 11:08 42.26527 -80.51062 9978 ft 146 kts 212°
2026-04-29 11:08 42.25653 -80.51758 9973 ft 146 kts 212°
2026-04-29 11:08 42.24778 -80.52455 9971 ft 146 kts 212°
2026-04-29 11:09 42.23902 -80.53152 9967 ft 146 kts 212°
2026-04-29 11:09 42.23024 -80.53851 9970 ft 146 kts 212°
2026-04-29 11:09 42.22148 -80.54547 9972 ft 146 kts 212°
2026-04-29 11:09 42.21269 -80.55246 9969 ft 147 kts 212°
2026-04-29 11:10 42.20391 -80.55944 9967 ft 147 kts 212°
2026-04-29 11:10 42.19522 -80.56636 9968 ft 147 kts 213°
2026-04-29 11:10 42.18643 -80.57335 9970 ft 147 kts 213°
2026-04-29 11:10 42.17762 -80.58034 9973 ft 147 kts 213°
2026-04-29 11:11 42.16881 -80.58732 9967 ft 147 kts 213°
2026-04-29 11:11 42.15999 -80.59432 9966 ft 147 kts 213°
2026-04-29 11:11 42.15115 -80.60133 9966 ft 147 kts 213°
2026-04-29 11:11 42.14232 -80.60833 9968 ft 147 kts 213°
2026-04-29 11:12 42.13346 -80.61534 9966 ft 147 kts 213°
2026-04-29 11:12 42.12460 -80.62231 9964 ft 148 kts 213°
2026-04-29 11:12 42.11576 -80.62934 9964 ft 148 kts 214°
2026-04-29 11:12 42.10691 -80.63638 9967 ft 148 kts 214°
2026-04-29 11:13 42.09802 -80.64342 9958 ft 148 kts 214°
2026-04-29 11:13 42.08915 -80.65045 9955 ft 148 kts 214°
2026-04-29 11:13 42.08025 -80.65749 9963 ft 148 kts 214°
2026-04-29 11:13 42.07137 -80.66451 9961 ft 148 kts 214°
2026-04-29 11:14 42.06259 -80.67146 9963 ft 148 kts 214°
2026-04-29 11:14 42.05369 -80.67849 9957 ft 148 kts 214°
2026-04-29 11:14 42.04478 -80.68553 9961 ft 149 kts 214°
2026-04-29 11:14 42.03588 -80.69256 9958 ft 149 kts 215°
2026-04-29 11:15 42.02684 -80.69970 9961 ft 149 kts 215°
2026-04-29 11:15 42.01793 -80.70674 9960 ft 149 kts 214°
2026-04-29 11:15 42.00902 -80.71377 9957 ft 148 kts 215°
2026-04-29 11:15 42.00022 -80.72071 9960 ft 148 kts 215°
2026-04-29 11:16 41.99131 -80.72774 9960 ft 148 kts 215°
2026-04-29 11:16 41.98241 -80.73475 9956 ft 148 kts 215°
2026-04-29 11:16 41.97352 -80.74176 9957 ft 148 kts 215°
2026-04-29 11:16 41.96462 -80.74877 9952 ft 148 kts 215°
2026-04-29 11:17 41.95574 -80.75576 9960 ft 148 kts 215°
2026-04-29 11:17 41.94683 -80.76278 9956 ft 148 kts 215°
2026-04-29 11:17 41.93793 -80.76979 9954 ft 148 kts 215°
2026-04-29 11:17 41.92902 -80.77680 9954 ft 149 kts 215°
2026-04-29 11:18 41.92007 -80.78384 9955 ft 149 kts 215°
2026-04-29 11:18 41.91417 -80.78848 9950 ft 149 kts 215°
2026-04-29 11:18 41.90524 -80.79550 9952 ft 149 kts 215°
2026-04-29 11:18 41.89633 -80.80250 9953 ft 148 kts 215°
2026-04-29 11:19 41.88741 -80.80950 9953 ft 149 kts 216°
2026-04-29 11:19 41.87846 -80.81653 9954 ft 149 kts 216°
2026-04-29 11:19 41.86952 -80.82356 9954 ft 149 kts 216°
2026-04-29 11:19 41.86057 -80.83057 9951 ft 149 kts 215°
2026-04-29 11:20 41.85162 -80.83760 9955 ft 149 kts 216°
2026-04-29 11:20 41.84267 -80.84463 9954 ft 149 kts 216°
2026-04-29 11:20 41.83370 -80.85165 9953 ft 149 kts 216°
2026-04-29 11:20 41.82182 -80.86096 9949 ft 149 kts 216°
2026-04-29 11:21 41.81577 -80.86571 9949 ft 149 kts 216°
2026-04-29 11:21 41.80679 -80.87274 9950 ft 150 kts 216°
2026-04-29 11:21 41.79779 -80.87979 9948 ft 150 kts 216°
2026-04-29 11:21 41.78880 -80.88682 9951 ft 150 kts 216°
2026-04-29 11:22 41.77979 -80.89387 9952 ft 150 kts 216°
2026-04-29 11:22 41.77080 -80.90091 9951 ft 150 kts 216°
2026-04-29 11:22 41.76178 -80.90796 9955 ft 150 kts 216°
2026-04-29 11:22 41.75292 -80.91488 9946 ft 150 kts 216°
2026-04-29 11:23 41.74391 -80.92193 9950 ft 150 kts 216°
2026-04-29 11:23 41.73490 -80.92896 9946 ft 150 kts 216°
2026-04-29 11:23 41.72591 -80.93599 9944 ft 150 kts 216°
2026-04-29 11:23 41.71692 -80.94301 9952 ft 150 kts 216°
2026-04-29 11:24 41.70790 -80.95004 9951 ft 150 kts 216°
2026-04-29 11:24 41.69889 -80.95708 9952 ft 150 kts 216°
2026-04-29 11:24 41.68988 -80.96411 9952 ft 150 kts 216°
2026-04-29 11:24 41.68087 -80.97113 9946 ft 150 kts 216°
2026-04-29 11:25 41.67188 -80.97814 9952 ft 150 kts 216°
2026-04-29 11:25 41.66285 -80.98517 9953 ft 150 kts 216°
2026-04-29 11:25 41.65382 -80.99220 9954 ft 150 kts 216°
2026-04-29 11:25 41.64481 -80.99923 9950 ft 150 kts 216°
2026-04-29 11:26 41.62692 -81.01315 9954 ft 150 kts 216°
2026-04-29 11:26 41.61793 -81.02014 9950 ft 150 kts 216°
2026-04-29 11:26 41.60891 -81.02715 9954 ft 150 kts 216°
2026-04-29 11:27 41.59991 -81.03415 9960 ft 150 kts 216°
2026-04-29 11:27 41.59090 -81.04115 9955 ft 149 kts 217°
2026-04-29 11:27 41.58192 -81.04812 9950 ft 149 kts 217°
2026-04-29 11:27 41.57296 -81.05509 9957 ft 149 kts 217°
2026-04-29 11:28 41.56397 -81.06207 9952 ft 150 kts 217°
2026-04-29 11:28 41.55495 -81.06907 9961 ft 149 kts 217°
2026-04-29 11:28 41.54597 -81.07604 9962 ft 150 kts 217°
2026-04-29 11:28 41.53698 -81.08301 9953 ft 149 kts 217°
2026-04-29 11:29 41.52799 -81.08999 9961 ft 150 kts 217°
2026-04-29 11:29 41.51897 -81.09699 9960 ft 150 kts 217°
2026-04-29 11:29 41.50997 -81.10395 9959 ft 149 kts 217°
2026-04-29 11:29 41.50098 -81.11091 9955 ft 149 kts 217°
2026-04-29 11:30 41.49202 -81.11785 9961 ft 149 kts 217°
2026-04-29 11:30 41.48304 -81.12480 9953 ft 149 kts 217°
2026-04-29 11:30 41.47406 -81.13176 9963 ft 150 kts 217°
2026-04-29 11:30 41.46503 -81.13875 9955 ft 150 kts 217°
2026-04-29 11:31 41.45600 -81.14572 9965 ft 150 kts 217°
2026-04-29 11:31 41.44697 -81.15271 9960 ft 150 kts 217°
2026-04-29 11:31 41.43806 -81.15959 9964 ft 150 kts 217°
2026-04-29 11:31 41.42891 -81.16666 9967 ft 150 kts 217°
2026-04-29 11:32 41.42000 -81.17355 9968 ft 150 kts 217°
2026-04-29 11:32 41.41099 -81.18050 9896 ft 150 kts 217°
2026-04-29 11:32 41.40201 -81.18744 9745 ft 149 kts 217°
2026-04-29 11:32 41.39300 -81.19440 9544 ft 149 kts 217°
2026-04-29 11:33 41.38403 -81.20132 9315 ft 149 kts 217°
2026-04-29 11:33 41.37509 -81.20821 9114 ft 148 kts 217°
2026-04-29 11:33 41.36618 -81.21508 8913 ft 148 kts 218°
2026-04-29 11:33 41.35759 -81.22240 8713 ft 146 kts 220°
2026-04-29 11:34 41.34913 -81.22997 8495 ft 147 kts 220°
2026-04-29 11:34 41.34071 -81.23758 8295 ft 146 kts 220°
2026-04-29 11:34 41.33233 -81.24516 8103 ft 145 kts 220°
2026-04-29 11:34 41.32399 -81.25273 7920 ft 145 kts 220°
2026-04-29 11:35 41.31564 -81.26028 7741 ft 145 kts 220°
2026-04-29 11:35 41.30732 -81.26778 7565 ft 145 kts 220°
2026-04-29 11:35 41.29901 -81.27529 7405 ft 144 kts 220°
2026-04-29 11:35 41.29071 -81.28280 7234 ft 144 kts 220°
2026-04-29 11:36 41.28242 -81.29031 7083 ft 144 kts 220°
2026-04-29 11:36 41.27416 -81.29778 6932 ft 144 kts 220°
2026-04-29 11:36 41.26591 -81.30527 6782 ft 143 kts 220°
2026-04-29 11:36 41.25765 -81.31268 6636 ft 143 kts 220°
2026-04-29 11:37 41.24928 -81.31992 6496 ft 143 kts 219°
2026-04-29 11:37 41.24091 -81.32712 6354 ft 143 kts 219°
2026-04-29 11:37 41.23255 -81.33437 6199 ft 143 kts 219°
2026-04-29 11:37 41.22436 -81.34156 6074 ft 143 kts 219°
2026-04-29 11:38 41.21608 -81.34888 5944 ft 143 kts 219°
2026-04-29 11:38 41.20787 -81.35621 5829 ft 142 kts 219°
2026-04-29 11:38 41.19967 -81.36362 5706 ft 142 kts 219°
2026-04-29 11:38 41.19148 -81.37106 5574 ft 143 kts 219°
2026-04-29 11:39 41.18332 -81.37853 5462 ft 142 kts 219°
2026-04-29 11:39 41.17518 -81.38601 5353 ft 142 kts 219°
2026-04-29 11:39 41.16711 -81.39354 5261 ft 142 kts 220°
2026-04-29 11:39 41.15905 -81.40105 5152 ft 141 kts 219°
2026-04-29 11:40 41.15099 -81.40857 5024 ft 142 kts 219°
2026-04-29 11:40 41.14294 -81.41613 4922 ft 142 kts 219°
2026-04-29 11:40 41.13493 -81.42375 4843 ft 141 kts 219°
2026-04-29 11:40 41.12697 -81.43141 4753 ft 142 kts 219°
2026-04-29 11:41 41.11905 -81.43915 4679 ft 142 kts 219°
2026-04-29 11:41 41.11111 -81.44692 4592 ft 142 kts 220°
2026-04-29 11:41 41.10317 -81.45470 4515 ft 142 kts 219°
2026-04-29 11:41 41.09523 -81.46265 4422 ft 143 kts 219°
2026-04-29 11:42 41.08730 -81.47065 4353 ft 142 kts 220°
2026-04-29 11:42 41.07945 -81.47855 4285 ft 142 kts 220°
2026-04-29 11:42 41.07155 -81.48650 4193 ft 141 kts 219°
2026-04-29 11:42 41.06341 -81.49388 3889 ft 144 kts 214°
2026-04-29 11:43 41.05490 -81.50084 3643 ft 143 kts 215°
2026-04-29 11:43 41.04715 -81.50903 3394 ft 142 kts 220°
2026-04-29 11:43 41.03986 -81.51758 3005 ft 143 kts 220°
2026-04-29 11:43 41.03249 -81.52656 2595 ft 145 kts 221°
2026-04-29 11:44 41.02575 -81.53677 2190 ft 148 kts 231°
2026-04-29 11:44 41.02086 -81.54790 2161 ft 132 kts 237°
2026-04-29 11:44 41.01638 -81.55717 2154 ft 105 kts 211°
2026-04-29 11:44 41.01052 -81.55655 2154 ft 88 kts 128°
2026-04-29 11:45 41.01007 -81.54750 2185 ft 109 kts 91°
2026-04-29 11:45 41.01248 -81.53735 2181 ft 123 kts 66°
2026-04-29 11:45 41.01654 -81.52731 2182 ft 119 kts 69°
2026-04-29 11:45 41.01970 -81.51877 2089 ft 96 kts 73°
2026-04-29 11:46 41.02203 -81.51070 1899 ft 92 kts 77°
2026-04-29 11:46 41.02416 -81.50270 1636 ft 92 kts 73°
2026-04-29 11:46 41.02641 -81.49497 1472 ft 87 kts 62°
2026-04-29 11:46 41.02942 -81.48783 1344 ft 90 kts 62°
2026-04-29 11:47 41.03232 -81.48026 1168 ft 93 kts 63°
2026-04-29 11:47 41.03531 -81.47299 1061 ft 80 kts 61°
2026-04-29 11:47 41.03734 -81.46797 1055 ft 30 kts 62°
2026-04-29 11:47 41.03750 -81.46758 1055 ft 0 kts 56°
2026-04-29 11:48 41.03753 -81.46752 1055 ft 7 kts 58°
2026-04-29 11:48 41.03813 -81.46601 1054 ft 21 kts 62°
2026-04-29 11:48 41.03871 -81.46493 1056 ft 8 kts 25°
2026-04-29 11:48 41.03941 -81.46483 1055 ft 13 kts
2026-04-29 11:49 41.04044 -81.46482 1051 ft 15 kts
2026-04-29 11:49 41.04086 -81.46396 1050 ft 13 kts 105°
2026-04-29 11:49 41.04093 -81.46330 1052 ft 7 kts 40°
2026-04-29 11:49 41.04123 -81.46353 1051 ft 7 kts 270°
2026-04-29 11:50 41.04129 -81.46395 1049 ft 0 kts 297°